Location: Unspecified
(0.0000°N, 0.0000°E)
Time: 17:31:40

Vanguard 2 Rocket - Pass Details

Date: 13 December 2017
Orbit: 554 x 3327 km, 32.9° (Epoch: 22 March)

Event Time Altitude Azimuth Distance (km) Brightness Sun altitude
Rises 23:52:13 0° 317° (NW) 6,990 - -66.9°
Reaches altitude 10° 23:58:12 10° 329° (NNW) 6,179 - -66.8°
Maximum altitude 00:14:04 28° 20° (NNE) 4,835 - -66.3°
Drops below altitude 10° 00:27:59 10° 72° (ENE) 5,489 - -65.4°
Exits shadow 00:28:31 - 74° (ENE) 5,551 10.8 -65.4°
Sets 00:32:44 0° 84° (E) 6,129 11.2 -65.0°
